Wind_Speed
26 26 27 27 27 28 28 29 30 29 30 29 29 30 30 30 30 30 31 31 30 32 34 35 36 37 37 38 39 39 40 41 42 43 44 44 46 47 48 49 50 50 50 51
26 26 27 28 27 28 28 29 29 30 29 28 29 29 30 30 29 30 30 30 31 31 32 33 34 35 36 37 37 38 39 40 41 42 43 44 44 46 47 47 48 48 48 49
25 26 27 27 27 27 28 27 28 29 27 28 29 29 29 30 29 29 29 30 30 30 30 31 32 33 34 35 36 37 38 39 40 41 42 43 43 43 44 46 47 47 48 47
24 24 26 24 25 26 28 27 28 28 28 28 28 29 29 30 29 29 29 29 29 29 29 30 30 31 32 33 35 36 37 38 38 39 40 41 42 43 43 44 45 45 46 46
23 24 24 23 24 25 26 26 27 27 27 27 28 28 28 29 28 28 28 28 28 28 29 29 30 31 31 32 34 35 37 37 37 38 39 39 40 41 42 42 43 43 45 45
23 23 23 22 23 25 26 25 25 27 27 27 27 27 27 28 28 27 27 27 28 28 29 29 29 30 30 31 32 34 36 36 37 37 38 38 39 39 40 41 41 41 42 42
22 24 24 22 23 24 25 25 25 26 26 27 27 26 26 26 26 26 27 27 27 28 28 28 28 29 29 30 31 32 33 35 36 36 36 37 37 38 38 38 38 39 39 39
23 24 23 23 23 24 24 25 25 25 26 26 26 26 25 26 27 27 27 27 27 28 28 28 28 28 28 29 30 31 31 32 33 34 35 36 36 36 36 37 37 37 36 36
24 24 24 24 24 24 24 25 25 25 25 25 25 26 26 26 27 27 27 28 27 27 28 28 28 28 28 28 29 29 29 30 31 31 33 33 34 34 35 35 35 35 35 35
24 23 23 24 24 24 25 25 26 26 26 25 25 25 26 26 26 26 27 27 27 27 28 28 28 28 28 28 28 28 29 29 30 30 31 32 33 33 33 34 34 34 34 34
22 22 23 24 25 25 26 26 26 27 27 26 25 25 25 25 25 25 25 26 26 27 27 27 28 28 28 28 28 28 28 29 29 29 29 30 30 30 31 31 31 32 32 32
22 22 23 23 24 24 25 25 26 26 26 26 25 25 25 25 25 24 24 25 25 26 26 26 27 27 28 28 28 28 28 29 29 30 29 29 29 29 29 29 30 30 30 31
23 23 23 23 24 24 24 24 24 24 24 24 24 24 24 24 24 24 25 25 25 25 25 26 26 26 27 28 27 27 28 28 29 29 28 28 29 29 29 29 29 29 30 30
23 22 22 22 23 23 23 23 23 22 22 22 22 23 23 23 23 24 24 24 24 24 24 25 25 26 26 26 27 27 27 28 28 28 27 28 28 27 27 27 27 27 28 28
22 22 22 22 23 23 23 22 22 21 21 21 22 22 22 22 23 23 23 23 23 23 23 24 24 25 25 26 26 27 27 27 27 26 26 26 26 25 25 25 25 25 25 26
20 20 20 20 20 21 21 20 20 20 20 21 21 21 21 21 21 22 22 22 22 22 22 23 24 24 24 25 25 25 25 25 25 25 25 25 25 24 23 23 23 24 23 24
18 18 19 19 18 18 18 18 18 19 19 19 19 19 19 19 20 20 21 21 21 22 22 23 23 24 24 23 23 23 24 24 24 24 24 24 24 23 23 22 22 22 22 22
17 17 18 17 17 18 18 18 17 18 18 18 18 18 19 19 20 20 20 20 21 22 23 23 23 23 22 22 22 22 23 23 24 23 23 23 23 22 22 22 21 21 21 21
17 17 17 16 17 17 17 17 17 17 18 17 17 18 18 18 19 19 19 20 21 21 22 22 22 21 21 22 22 22 22 22 22 21 21 21 21 21 21 21 21 21 20 21
17 17 16 16 16 16 16 17 17 17 17 17 17 17 17 17 18 18 18 19 20 20 20 20 20 20 20 21 21 21 21 21 20 19 19 19 19 19 19 19 19 19 19 19
16 16 16 16 16 17 17 17 17 17 17 17 17 17 17 17 17 17 18 18 18 18 19 19 19 19 19 19 19 19 20 20 19 19 19 18 18 17 17 17 17 17 17 17
16 16 16 16 16 16 16 16 15 15 15 15 15 16 16 16 16 17 17 17 17 17 18 18 18 19 19 18 18 18 18 18 18 17 17 17 16 16 15 15 15 15 15 15
16 16 16 16 16 15 15 15 14 14 14 14 15 15 15 16 16 17 17 17 17 17 17 18 18 18 18 17 17 18 18 17 17 16 15 15 14 14 14 13 13 13 13 13
16 16 16 15 15 15 14 14 14 14 14 14 14 15 15 16 16 16 16 16 17 17 17 18 18 18 17 17 17 17 17 16 15 14 14 13 13 13 12 12 11 11 11 11
15 14 14 14 13 13 13 13 13 13 14 14 14 15 15 16 16 16 16 16 16 17 17 17 17 17 17 16 16 16 16 15 14 14 13 12 12 11 11 11 10 11 11 11
15 14 14 14 13 13 13 13 13 13 13 14 14 15 15 16 15 16 16 16 16 17 17 17 16 16 15 15 15 15 15 14 14 13 12 11 11 11 11 10 10 10 10 9
15 15 14 14 13 13 13 13 13 13 14 14 14 14 15 15 15 16 16 16 16 16 16 15 15 15 15 15 14 14 14 13 13 12 12 12 11 11 11 11 11 10 9 8
Wind_Direction
262 262 262 261 260 261 262 265 267 268 269 269 269 270 272 273 271 269 268 267 267 266 265 265 264 264 263 263 263 263 263 264 265 265 266 266 265 264 264 264 264 264 264 264
263 263 263 262 262 263 263 265 267 268 269 269 269 271 272 272 271 270 268 267 268 268 267 267 267 266 265 264 265 265 265 265 266 267 267 267 267 266 266 266 266 265 265 265
265 264 264 264 264 264 263 264 266 267 269 269 269 270 271 272 271 270 268 267 267 268 268 269 269 268 267 266 266 267 267 267 267 267 268 268 269 269 268 267 266 265 265 265
267 265 265 268 268 267 265 265 266 267 267 267 269 269 269 270 270 270 270 268 267 268 270 271 271 270 270 269 268 269 269 270 269 269 269 269 269 270 270 269 268 266 266 266
269 269 269 268 270 269 268 267 266 267 267 268 268 268 270 271 272 272 271 270 270 271 272 272 272 272 271 271 271 272 272 272 271 271 271 271 271 270 270 269 269 268 267 266
271 273 274 275 272 269 269 268 266 266 266 267 267 268 270 271 271 271 270 270 272 274 274 274 275 274 273 273 273 273 273 273 273 273 273 273 272 271 270 269 269 269 269 267
273 275 277 277 274 273 272 272 270 269 269 268 267 268 269 269 269 269 270 271 273 275 276 276 277 277 276 275 275 275 274 274 274 274 274 273 274 273 272 271 270 269 269 267
273 276 279 277 275 275 275 274 274 273 272 271 270 269 269 270 270 270 271 272 273 275 277 277 278 279 278 278 278 278 278 277 276 276 275 275 275 274 274 273 272 272 271 269
274 276 277 275 275 275 274 275 274 274 274 272 272 270 271 272 272 272 272 273 274 275 276 277 278 279 280 280 281 281 281 280 279 279 277 277 276 275 275 274 273 273 272 270
275 274 274 275 275 276 276 277 275 275 275 272 272 271 270 272 273 273 273 273 274 275 276 277 279 279 280 281 282 282 282 283 282 281 281 280 278 277 276 275 274 273 272 270
276 275 273 274 276 276 276 277 275 274 274 273 272 271 270 271 272 273 274 274 275 276 276 277 279 279 280 281 282 282 283 284 284 284 284 282 280 279 278 276 275 274 272 270
274 275 275 274 276 278 278 278 277 274 273 272 271 270 270 270 271 272 274 275 275 276 277 278 280 280 281 281 282 283 284 284 284 285 285 283 282 280 280 278 276 274 272 271
274 275 275 275 277 279 279 279 278 276 275 274 272 271 270 270 270 271 273 274 275 277 279 280 282 283 283 282 282 284 285 286 286 286 285 283 283 282 280 279 276 273 271 270
275 276 277 278 278 279 280 281 280 278 277 275 273 273 273 273 273 274 275 276 276 278 280 282 284 285 286 286 284 284 286 288 288 287 285 284 283 282 281 279 277 274 273 271
276 278 280 280 279 280 281 281 280 279 278 276 275 275 274 274 275 276 277 278 279 280 282 284 285 287 288 288 287 287 287 288 288 288 286 285 284 283 282 280 278 276 273 271
281 282 282 281 280 280 281 279 277 277 278 278 277 276 275 275 276 277 279 280 281 282 283 285 287 288 289 289 290 290 290 290 289 289 287 285 284 284 282 280 278 276 273 272
283 283 283 282 282 281 280 279 278 278 279 279 278 277 277 278 279 280 281 282 283 284 286 287 288 289 289 290 290 291 292 292 291 289 287 286 285 284 281 280 278 276 274 273
285 287 285 283 283 282 280 279 279 279 278 279 279 278 279 279 280 281 282 282 284 286 288 288 289 289 289 289 290 291 293 294 293 291 287 287 287 284 281 279 277 276 275 274
287 288 287 285 285 286 283 280 278 278 278 279 279 280 281 282 283 282 282 284 286 287 288 288 289 289 290 290 290 291 293 295 295 293 291 289 287 284 282 280 278 276 274 273
287 287 287 287 287 287 284 281 279 279 279 279 279 281 283 286 287 287 286 286 287 288 289 289 290 290 292 293 292 292 293 294 295 295 294 293 290 286 284 281 278 276 274 273
286 287 288 288 287 286 284 283 282 281 280 279 280 281 283 286 288 290 290 290 290 290 290 291 292 293 294 294 294 295 295 296 295 296 296 295 293 289 286 282 279 277 276 275
285 287 289 289 287 285 285 284 283 282 281 281 282 284 286 288 290 291 292 291 291 292 292 293 294 296 296 294 294 295 296 297 298 298 297 296 295 292 287 284 282 282 279 275
287 289 290 290 288 286 285 285 284 283 283 284 285 286 288 290 293 294 294 293 292 293 293 293 295 297 297 295 294 296 296 297 298 299 298 298 298 295 291 288 285 282 280 277
289 290 291 290 287 285 285 284 284 285 285 286 287 289 291 293 295 295 295 295 295 294 294 294 294 294 294 294 295 295 295 295 297 298 298 297 299 298 294 290 287 285 283 281
287 289 290 289 288 287 284 283 283 285 287 288 290 292 294 296 296 297 297 297 297 297 296 296 295 294 294 294 295 295 294 292 294 297 297 296 297 297 294 289 287 286 285 284
285 286 288 286 287 287 285 284 285 287 289 292 294 296 297 298 297 297 298 298 298 298 298 297 296 296 295 294 295 295 294 291 292 294 294 293 293 291 289 286 285 287 286 286
283 283 284 283 284 285 284 285 286 287 289 292 294 297 298 299 299 299 299 299 300 300 298 297 296 294 293 293 293 295 295 293 292 291 291 291 289 288 286 285 285 283 281 282
Height
5582 5582 5582 5582 5583 5582 5582 5582 5582 5583 5583 5584 5583 5582 5582 5581 5581 5581 5581 5581 5581 5581 5581 5580 5580 5580 5581 5581 5581 5581 5581 5581 5581 5580 5580 5580 5580 5580 5580 5581 5581 5581 5582 5582
5574 5574 5573 5574 5575 5574 5574 5574 5574 5574 5575 5576 5574 5573 5573 5572 5572 5572 5572 5572 5572 5572 5571 5571 5570 5570 5570 5570 5570 5570 5570 5570 5569 5569 5568 5568 5568 5567 5567 5567 5567 5567 5568 5568
5566 5566 5565 5566 5568 5567 5566 5566 5566 5565 5568 5566 5565 5565 5564 5564 5563 5563 5563 5563 5563 5563 5562 5561 5561 5560 5560 5560 5560 5559 5559 5558 5558 5557 5557 5556 5555 5555 5554 5554 5554 5554 5554 5555
5557 5558 5558 5562 5559 5558 5558 5558 5558 5557 5558 5558 5557 5556 5556 5555 5555 5554 5554 5554 5554 5553 5553 5552 5552 5551 5550 5550 5549 5548 5548 5547 5546 5545 5545 5544 5543 5543 5542 5541 5541 5541 5541 5541
5550 5549 5550 5553 5551 5549 5549 5550 5550 5549 5549 5549 5548 5547 5547 5547 5546 5546 5545 5545 5545 5545 5544 5543 5542 5541 5541 5540 5539 5538 5537 5536 5535 5534 5533 5532 5531 5530 5529 5528 5528 5527 5527 5527
5543 5542 5543 5546 5543 5541 5542 5542 5542 5541 5541 5540 5540 5540 5541 5539 5538 5537 5537 5537 5536 5536 5535 5534 5533 5532 5531 5530 5529 5527 5526 5525 5523 5522 5521 5520 5519 5518 5517 5516 5515 5515 5514 5514
5536 5535 5535 5537 5534 5533 5535 5535 5533 5532 5532 5532 5531 5532 5532 5530 5529 5529 5529 5528 5528 5527 5526 5525 5524 5523 5522 5520 5519 5517 5516 5514 5513 5511 5510 5508 5507 5506 5505 5504 5503 5502 5502 5502
5529 5528 5531 5528 5527 5527 5526 5525 5524 5524 5523 5523 5523 5523 5522 5522 5521 5520 5520 5520 5519 5518 5517 5516 5515 5514 5513 5511 5509 5508 5506 5504 5502 5500 5499 5497 5496 5495 5494 5493 5492 5491 5490 5490
5523 5524 5522 5520 5519 5518 5518 5517 5516 5516 5515 5515 5515 5514 5514 5513 5513 5512 5512 5511 5510 5510 5509 5507 5506 5505 5504 5502 5500 5499 5497 5495 5493 5490 5488 5487 5485 5484 5483 5482 5481 5480 5480 5480
5515 5515 5514 5513 5512 5511 5510 5509 5508 5508 5507 5507 5506 5506 5506 5505 5504 5504 5503 5502 5502 5501 5500 5499 5498 5496 5495 5493 5492 5490 5488 5486 5483 5481 5479 5477 5475 5474 5473 5471 5470 5470 5469 5469
5508 5508 5507 5506 5505 5503 5502 5501 5500 5499 5499 5498 5498 5498 5497 5497 5496 5496 5495 5494 5493 5492 5491 5490 5489 5488 5486 5484 5483 5481 5479 5477 5474 5472 5470 5468 5466 5464 5463 5461 5460 5460 5459 5459
5501 5501 5499 5499 5497 5496 5494 5493 5492 5491 5491 5490 5490 5490 5489 5489 5488 5488 5487 5486 5485 5484 5483 5482 5480 5479 5477 5475 5474 5472 5470 5468 5465 5463 5461 5459 5457 5455 5453 5452 5451 5450 5449 5449
5494 5493 5492 5491 5490 5488 5487 5486 5484 5484 5483 5483 5482 5482 5481 5481 5480 5480 5479 5478 5477 5476 5475 5473 5472 5470 5468 5466 5465 5463 5461 5459 5456 5454 5452 5449 5448 5446 5444 5443 5441 5440 5439 5439
5486 5485 5484 5483 5482 5481 5480 5478 5477 5476 5476 5475 5475 5474 5474 5473 5473 5472 5471 5470 5469 5468 5467 5465 5464 5462 5460 5458 5456 5454 5452 5450 5447 5445 5443 5441 5439 5437 5435 5434 5432 5431 5430 5430
5480 5478 5477 5476 5475 5474 5473 5471 5470 5470 5469 5468 5468 5467 5466 5466 5465 5464 5464 5463 5462 5460 5459 5458 5456 5454 5452 5450 5448 5446 5444 5441 5439 5436 5434 5432 5430 5429 5427 5425 5424 5423 5422 5421
5473 5472 5470 5469 5468 5467 5466 5464 5464 5463 5462 5462 5461 5460 5459 5459 5458 5457 5456 5455 5454 5453 5452 5450 5449 5447 5445 5442 5440 5438 5435 5433 5430 5428 5426 5424 5422 5421 5419 5418 5416 5415 5414 5414
5466 5465 5464 5463 5461 5460 5459 5458 5457 5457 5456 5455 5454 5454 5453 5452 5451 5451 5450 5448 5447 5446 5445 5443 5441 5439 5437 5435 5433 5431 5428 5425 5423 5420 5418 5416 5415 5413 5412 5411 5409 5408 5407 5406
5460 5459 5458 5457 5455 5454 5453 5452 5451 5451 5450 5449 5449 5448 5447 5446 5445 5444 5443 5442 5441 5439 5438 5436 5434 5432 5430 5428 5426 5424 5421 5419 5416 5413 5411 5409 5407 5406 5404 5403 5402 5401 5400 5400
5455 5453 5452 5451 5450 5449 5448 5447 5446 5445 5445 5444 5443 5442 5441 5440 5439 5438 5437 5435 5434 5433 5431 5429 5427 5425 5423 5421 5419 5417 5415 5412 5409 5407 5404 5402 5400 5399 5398 5397 5396 5395 5394 5393
5449 5448 5447 5446 5444 5443 5442 5441 5441 5440 5439 5438 5437 5436 5435 5434 5433 5432 5430 5429 5428 5426 5424 5422 5421 5419 5417 5415 5413 5411 5409 5406 5404 5401 5399 5396 5394 5393 5391 5390 5389 5388 5387 5387
5444 5443 5441 5440 5439 5438 5437 5436 5435 5434 5433 5433 5432 5431 5430 5429 5428 5426 5425 5423 5422 5420 5418 5417 5415 5413 5411 5409 5407 5405 5403 5400 5398 5396 5393 5391 5389 5387 5386 5384 5383 5382 5382 5381
5438 5437 5436 5435 5434 5433 5432 5431 5430 5429 5428 5427 5426 5425 5424 5423 5422 5421 5419 5418 5416 5414 5413 5411 5409 5408 5406 5404 5402 5400 5397 5395 5393 5390 5388 5386 5384 5383 5381 5380 5378 5377 5376 5376
5433 5432 5431 5429 5428 5427 5426 5425 5425 5424 5423 5422 5421 5420 5419 5418 5417 5415 5414 5412 5410 5409 5407 5406 5404 5402 5400 5399 5397 5395 5393 5390 5388 5386 5384 5382 5380 5378 5377 5375 5374 5373 5372 5371
5427 5426 5425 5424 5423 5422 5421 5420 5420 5419 5418 5417 5416 5415 5414 5413 5411 5410 5408 5407 5405 5404 5402 5400 5399 5397 5395 5394 5392 5390 5388 5386 5384 5382 5380 5378 5376 5375 5373 5372 5371 5370 5369 5368
5422 5421 5420 5419 5418 5417 5416 5416 5415 5414 5413 5412 5411 5410 5409 5408 5406 5405 5403 5402 5400 5398 5397 5395 5393 5392 5390 5389 5387 5385 5383 5381 5380 5378 5376 5374 5373 5371 5370 5369 5368 5367 5366 5365
5417 5416 5415 5414 5413 5413 5412 5411 5410 5410 5409 5408 5407 5405 5404 5403 5401 5400 5398 5397 5395 5393 5392 5390 5388 5387 5385 5384 5382 5380 5378 5377 5375 5374 5372 5371 5369 5368 5367 5366 5365 5364 5363 5361
5411 5411 5410 5409 5409 5408 5407 5406 5406 5405 5404 5403 5402 5401 5399 5398 5396 5395 5393 5392 5390 5388 5387 5385 5383 5382 5380 5379 5377 5376 5374 5373 5371 5370 5368 5367 5366 5365 5364 5363 5362 5361 5360 5359